Location: Ellerstadt
(49.4644°N, 8.2615°E)
Time: 11:03:34
(UTC+00:00)

USA 234 - Pass Details

Date: 03 March 2021
Orbit: 1102 x 1105 km, 123.0° (Epoch: 13 April)

Event Time Altitude Azimuth Distance (km) Brightness Sun altitude
Exits shadow 21:27:18 45° 298° (WNW) 1,465 4.1 -38.9°
Drops below altitude 10° 21:32:03 10° 268° (W) 2,962 5.9 -39.4°
Sets 21:34:34 0° 264° (W) 3,919 6.6 -39.7°
